Location: High Meadows Obseravatory
(40.7417°N, 111.5713°W)
Time: 17:44:43
(UTC-07:00)

BlueWalker 3 - Visible Passes

Search period start: 30 November 2022 00:00
Search period end: 10 December 2022 00:00
Orbit: 500 x 519 km, 53.2° (Epoch: 30 November)

Date Brightness Start Highest point End Pass type
(mag) Time Alt. Az. Time Alt. Az. Time Alt. Az.
30 Nov 3.9 17:29:51 10° WNW 17:32:40 19° NNW 17:35:29 10° NNE visible
30 Nov 4.6 19:10:41 10° NNW 19:11:25 12° NNW 19:11:25 12° NNW visible
01 Dec 4.3 18:52:20 10° NNW 18:53:45 13° N 18:53:45 13° N visible
02 Dec 4.2 18:33:59 10° NNW 18:35:55 13° N 18:36:06 13° N visible
03 Dec 4.1 18:15:36 10° NNW 18:17:35 13° N 18:18:28 13° NNE visible
04 Dec 4.1 17:57:14 10° NNW 17:59:15 13° N 18:00:52 11° NNE visible
04 Dec 4.9 19:35:33 10° NW 19:35:42 11° NNW 19:35:42 11° NNW visible
05 Dec 4.1 17:38:51 10° NNW 17:40:53 14° N 17:42:56 10° NE visible
05 Dec 4.3 19:17:07 10° NW 19:18:09 16° NNW 19:18:09 16° NNW visible
06 Dec 3.6 18:58:42 10° NW 19:00:42 23° NNW 19:00:42 23° NNW visible
07 Dec 2.9 18:40:16 10° NW 18:43:20 31° NNE 18:43:20 31° NNE visible
08 Dec 2.7 18:21:49 10° NW 18:25:25 34° NNE 18:26:06 31° NE visible
08 Dec 5.1 20:00:30 10° WNW 20:00:57 13° WNW 20:00:57 13° WNW visible
09 Dec 2.6 18:03:23 10° NW 18:07:00 35° NNE 18:09:04 20° E visible
09 Dec 4.3 19:42:07 10° WNW 19:43:57 23° W 19:43:57 23° W visible
